CW0009 Weather Reports


Display with metric or nautical units.
time (UTC)temp
F
wind
direction
speed
MPH
gust
MPH
rain 1hr
in
rain 24hr
in
rain mn
in
humidity
%
barometer
mb
20181114192014 44 115 0.0 0.0 0.00 0.00 0.00 87 1024.0
20181114191017 44 115 0.0 0.0 0.00 0.00 0.00 87 1025.0
20181114190014 45 115 0.0 0.0 0.00 0.00 0.00 86 1025.0
20181114185013 45 115 0.0 0.0 0.00 0.00 0.00 86 1025.0
20181114184036 45 115 0.0 0.0 0.00 0.00 0.00 85 1025.0
20181114182014 46 115 0.0 0.0 0.00 0.00 0.00 85 1025.0
20181114181015 46 115 0.0 0.0 0.00 0.00 0.00 85 1025.0
20181114180013 46 115 0.0 0.0 0.00 0.00 0.00 85 1025.0
20181114175015 47 115 0.0 0.0 0.00 0.00 0.00 85 1025.0
20181114174016 47 115 0.0 0.0 0.00 0.00 0.00 85 1025.0
20181114173015 47 115 0.0 0.0 0.00 0.00 0.00 85 1025.0
20181114172015 48 115 0.0 0.0 0.00 0.00 0.00 85 1025.0
20181114164014 49 115 0.0 0.0 0.00 0.00 0.00 84 1025.0
20181114163016 50 115 0.0 0.0 0.00 0.00 0.00 84 1025.0
20181114162015 50 115 0.0 0.0 0.00 0.00 0.00 84 1025.0
20181114161037 50 115 0.0 0.0 0.00 0.00 0.00 84 1025.0
20181114160035 51 115 0.0 0.0 0.00 0.00 0.00 84 1025.0
20181114155014 51 115 0.0 0.0 0.00 0.00 0.00 84 1025.0
20181114154019 51 115 0.0 0.0 0.00 0.00 0.00 84 1025.0
20181114153013 52 115 0.0 0.0 0.00 0.00 0.00 84 1025.0
20181114152035 52 115 0.0 0.0 0.00 0.00 0.00 83 1025.0
20181114151013 52 115 0.0 0.0 0.00 0.00 0.00 83 1025.0
20181114150011 53 115 0.0 0.0 0.00 0.00 0.00 84 1025.0
20181114145013 53 115 0.0 0.0 0.00 0.00 0.00 84 1025.0
20181114144034 53 115 0.0 0.0 0.00 0.00 0.00 84 1025.0
20181114142014 54 115 0.0 0.0 0.00 0.00 0.00 84 1025.0
20181114141016 54 115 2.0 1.0 0.00 0.00 0.00 84 1025.0
20181114140012 54 115 2.0 6.0 0.00 0.00 0.00 85 1025.0
20181114135014 54 115 3.0 6.0 0.00 0.00 0.00 86 1025.0
20181114133014 55 155 7.0 9.0 0.00 0.00 0.00 88 1026.0
20181114132012 55 160 6.0 7.0 0.00 0.00 0.00 89 1026.0
20181114131013 55 170 6.0 8.0 0.00 0.00 0.00 90 1026.0
20181114130012 55 160 5.0 8.0 0.00 0.00 0.00 91 1026.0
20181114125013 55 155 3.0 7.0 0.00 0.00 0.00 91 1026.0
20181114123014 56 130 2.0 5.0 0.00 0.00 0.00 92 1026.0
20181114121013 55 125 6.0 8.0 0.00 0.00 0.00 93 1026.0
20181114120012 55 155 7.0 8.0 0.00 0.00 0.00 96 1026.0
20181114115015 55 170 7.0 8.0 0.00 0.00 0.00 96 1026.0
20181114114013 55 175 7.0 9.0 0.00 0.00 0.00 96 1026.0
20181114113013 50 165 5.0 7.0 0.00 0.00 0.00 99 1026.0
20181114112014 50 145 3.0 7.0 0.00 0.00 0.00 99 1026.0
20181114111035 50 155 5.0 6.0 0.00 0.00 0.00 99 1026.0
20181114110033 50 155 5.0 7.0 0.00 0.00 0.00 99 1027.0
20181114104014 50 155 3.0 3.0 0.00 0.00 0.00 99 1027.0
20181114102013 47 145 3.0 3.0 0.00 0.00 0.00 100 1027.0
20181114101035 47 155 5.0 3.0 0.00 0.00 0.00 100 1027.0
20181114100033 47 160 3.0 7.0 0.00 0.00 0.00 100 1027.0
20181114095013 47 155 2.0 7.0 0.00 0.00 0.00 100 1027.0
20181114094034 44 150 4.0 7.0 0.00 0.00 0.00 100 1027.0
20181114093014 44 160 5.0 6.0 0.00 0.00 0.00 100 904.0
20181114092013 44 155 5.0 6.0 0.00 0.00 0.00 100 1027.0
20181114091013 44 110 3.0 6.0 0.00 0.00 0.00 100 1027.0
20181114090033 43 110 2.0 5.0 0.00 0.00 0.00 99 1027.0
20181114084013 42 110 0.0 0.0 0.00 0.00 0.00 99 1027.0
20181114083013 41 110 0.0 0.0 0.00 0.00 0.00 98 1027.0
20181114082015 41 110 0.0 0.0 0.00 0.00 0.00 98 1027.0
20181114081013 41 110 0.0 0.0 0.00 0.00 0.00 98 1027.0
20181114075013 41 110 0.0 0.0 0.00 0.00 0.00 98 1027.0
20181114074013 41 110 0.0 0.0 0.00 0.00 0.00 98 1027.0
20181114073013 41 110 0.0 0.0 0.00 0.00 0.00 97 1027.0
20181114072013 41 110 0.0 0.0 0.00 0.00 0.00 97 1027.0
20181114071016 41 110 0.0 0.0 0.00 0.00 0.00 97 1027.0
20181114070012 42 110 0.0 0.0 0.00 0.00 0.00 97 1027.0
20181114065013 42 110 0.0 0.0 0.00 0.00 0.00 97 1027.0
20181114064013 42 110 0.0 0.0 0.00 0.00 0.00 97 1027.0
20181114063013 42 110 0.0 0.0 0.00 0.00 0.00 97 1027.0
20181114062013 42 110 0.0 0.0 0.00 0.00 0.00 97 1027.0
20181114061013 42 110 0.0 0.0 0.00 0.00 0.00 96 1027.0
20181114060035 42 110 0.0 0.0 0.00 0.00 0.00 96 1027.0
20181114055034 42 110 0.0 0.0 0.00 0.00 0.00 96 1027.0
20181114054013 42 110 0.0 0.0 0.00 0.00 0.00 96 1027.0
20181114053014 42 110 1.0 2.0 0.00 0.00 0.00 96 1027.0
20181114051013 42 110 1.0 2.0 0.00 0.00 0.00 96 1027.0
20181114050033 42 110 0.0 0.0 0.00 0.00 0.00 96 1027.0
20181114044013 42 110 0.0 0.0 0.00 0.00 0.00 96 1027.0
20181114043035 42 110 0.0 0.0 0.00 0.00 0.00 95 1027.0
20181114042035 42 110 0.0 0.0 0.00 0.00 0.00 95 1027.0
20181114041034 42 110 0.0 0.0 0.00 0.00 0.00 95 1027.0
20181114040012 42 110 0.0 0.0 0.00 0.00 0.00 95 1027.0
20181114035013 43 110 0.0 0.0 0.00 0.00 0.00 95 1027.0
20181114034017 43 110 0.0 0.0 0.00 0.00 0.00 95 1027.0
20181114033034 43 110 0.0 0.0 0.00 0.00 0.00 95 1027.0
20181114032034 43 110 0.0 0.0 0.00 0.00 0.00 95 1027.0
20181114031013 44 110 0.0 0.0 0.00 0.00 0.00 95 1027.0
20181114030012 44 110 0.0 0.0 0.00 0.00 0.00 95 1027.0
20181114025035 44 110 0.0 0.0 0.00 0.00 0.00 95 1028.0
20181114024034 44 110 0.0 0.0 0.00 0.00 0.00 95 1028.0
20181114023036 44 110 0.0 0.0 0.00 0.00 0.00 95 1028.0
20181114022013 45 110 0.0 0.0 0.00 0.00 0.00 95 1028.0
20181114021034 45 110 0.0 0.0 0.00 0.00 0.00 94 1028.0
20181114020033 45 110 0.0 0.0 0.00 0.00 0.00 94 1028.0
20181114015034 45 110 0.0 0.0 0.00 0.00 0.00 94 1028.0
20181114014035 45 110 0.0 0.0 0.00 0.00 0.00 94 1028.0
20181114013034 46 110 0.0 0.0 0.00 0.00 0.00 94 1028.0
20181114012013 46 110 0.0 0.0 0.00 0.00 0.00 94 1028.0
20181114011044 46 110 0.0 0.0 0.00 0.00 0.00 94 1028.0
20181114010011 46 110 0.0 0.0 0.00 0.00 0.00 94 1028.0
20181114005014 46 110 0.0 0.0 0.00 0.00 0.00 94 1028.0
20181114004034 47 110 0.0 0.0 0.00 0.00 0.00 93 1028.0
20181114003036 47 110 0.0 0.0 0.00 0.00 0.00 93 1028.0
20181114002035 47 110 0.0 0.0 0.00 0.00 0.00 93 1028.0
20181114001015 47 110 1.0 0.0 0.00 0.00 0.00 93 1028.0
20181113235013 47 110 3.0 5.0 0.00 0.00 0.00 93 1028.0
20181113234014 47 110 2.0 5.0 0.00 0.00 0.00 93 1028.0
20181113233013 47 110 2.0 3.0 0.00 0.00 0.00 93 1028.0
20181113232013 48 110 2.0 6.0 0.00 0.00 0.00 93 1028.0
20181113231036 48 110 2.0 3.0 0.00 0.00 0.00 93 1028.0
20181113230013 48 110 2.0 2.0 0.00 0.00 0.00 93 1028.0
20181113225013 48 110 2.0 3.0 0.00 0.00 0.00 93 1028.0
20181113223015 48 110 3.0 3.0 0.00 0.00 0.00 92 1028.0
20181113222013 48 110 3.0 6.0 0.00 0.00 0.00 92 1028.0
20181113221014 48 110 2.0 5.0 0.00 0.00 0.00 92 1028.0
20181113220012 48 110 1.0 3.0 0.00 0.00 0.00 92 1028.0
20181113215034 48 110 2.0 2.0 0.00 0.00 0.00 92 1028.0
20181113214013 48 110 3.0 5.0 0.00 0.00 0.00 92 1028.0
20181113213015 47 110 3.0 5.0 0.00 0.00 0.00 91 1028.0
20181113212013 47 110 3.0 5.0 0.00 0.00 0.00 91 1028.0
20181113211013 47 110 2.0 6.0 0.00 0.00 0.00 91 1028.0
20181113210012 47 110 2.0 2.0 0.00 0.00 0.00 90 1028.0
20181113205013 47 110 3.0 5.0 0.00 0.00 0.00 90 1028.0
20181113204014 47 110 5.0 6.0 0.00 0.00 0.00 90 1028.0
20181113203015 47 110 3.0 6.0 0.00 0.00 0.00 89 1027.0
20181113200013 47 110 1.0 1.0 0.00 0.00 0.00 89 1027.0
20181113195013 47 110 0.0 2.0 0.00 0.00 0.00 88 1027.0
20181113194015 47 110 1.0 0.0 0.00 0.00 0.00 88 1027.0
20181113193013 48 110 2.0 3.0 0.00 0.00 0.00 88 1027.0